Wind_Speed
43 45 45 44 43 43 41 38 35 33 30 29 32 34 38 43 45 45 46 46 45 45 45 45 46 46 46 44 44 44 44 44 44 43 42 42 41 39 38 37 36 38 39 36 32 29 25 24 24 23 22 22 22 22 22 22 23 24 25 26 27 28 28
37 39 42 43 43 42 39 37 36 35 31 29 31 33 36 41 45 46 47 46 46 46 45 46 46 47 46 44 44 44 44 44 43 43 42 42 42 42 41 40 39 38 39 37 34 30 26 25 24 23 21 21 22 22 22 22 22 22 23 23 24 27 28
37 37 39 41 42 41 40 41 41 39 34 32 32 33 35 39 44 47 47 47 47 46 45 46 47 47 46 44 44 45 44 44 43 42 42 42 42 42 42 40 39 39 38 37 35 31 28 26 24 22 21 21 21 22 22 22 21 21 21 21 21 24 26
44 41 39 40 41 42 43 43 42 39 35 33 33 34 36 39 42 47 48 48 48 47 46 46 47 47 45 44 44 45 44 44 43 42 42 41 40 40 41 40 39 38 37 36 35 33 29 26 25 22 21 20 21 21 21 21 21 20 19 18 18 21 24
52 50 47 44 42 42 41 41 39 37 36 35 34 36 39 40 41 46 48 49 49 48 47 47 47 47 45 44 44 45 44 44 43 43 42 41 39 39 40 39 39 38 37 35 35 34 30 27 26 23 21 20 20 21 21 20 19 18 18 17 16 17 21
53 53 52 50 48 45 43 42 41 40 39 39 38 39 41 41 41 44 47 49 49 48 47 47 48 47 46 45 45 45 44 43 43 42 42 41 40 38 39 39 39 38 36 35 35 33 31 29 27 24 21 19 19 20 20 20 19 17 14 14 14 14 16
51 51 50 50 49 49 48 47 47 46 44 43 42 42 42 41 40 43 46 48 48 48 47 47 48 47 46 45 45 45 44 43 43 42 42 41 40 39 39 39 39 37 35 34 33 32 31 30 28 26 23 19 18 20 20 19 17 16 13 12 12 13 13
49 50 50 49 48 48 47 47 49 49 48 47 44 42 42 41 41 42 45 48 48 47 47 47 47 47 46 45 45 44 44 43 43 42 42 42 41 40 40 40 38 37 35 34 34 33 32 31 30 28 24 20 18 19 18 14 13 15 14 13 13 13 12
49 49 49 49 48 46 44 44 46 47 48 48 46 44 43 43 43 44 45 47 47 47 46 46 46 46 46 45 44 43 44 43 43 43 43 42 41 41 42 41 40 39 37 35 35 35 34 33 33 30 26 21 18 17 15 12 13 14 14 14 14 12 10
50 48 47 47 47 44 42 42 43 43 44 44 43 43 44 45 45 44 45 46 46 46 45 45 45 45 45 44 44 43 43 43 42 42 43 42 42 41 41 40 40 41 40 38 37 38 37 36 36 32 26 21 17 15 15 13 12 12 11 12 13 9 5
51 48 47 45 44 42 41 41 41 40 40 41 42 44 45 46 46 45 44 45 46 45 44 44 43 44 44 44 44 43 43 43 41 38 38 39 40 40 40 39 39 40 41 41 41 40 39 38 37 33 26 21 17 15 15 13 11 10 9 8 9 8 4
50 47 44 42 41 40 40 40 39 37 38 40 42 44 44 45 45 45 45 45 45 44 43 42 42 42 43 43 43 42 42 42 40 37 34 33 34 36 37 38 39 40 40 42 42 42 40 38 37 32 25 20 17 14 13 12 10 8 6 5 8 9 6
47 45 43 41 41 40 39 39 38 37 37 38 37 38 39 40 42 44 44 44 44 43 42 42 41 41 42 42 43 42 42 42 42 40 38 35 33 33 33 33 34 36 39 40 41 41 40 37 35 31 24 17 15 13 12 12 10 7 5 7 10 11 10
46 45 44 42 40 39 39 38 38 37 36 35 34 33 34 36 39 41 42 43 43 42 42 41 41 41 41 42 42 42 42 42 41 41 41 40 36 34 33 32 31 31 33 35 37 38 37 35 33 29 22 16 14 13 11 10 8 6 7 10 12 13 13
48 46 45 42 40 39 39 36 35 35 35 34 33 32 32 33 36 38 39 41 42 41 40 40 40 41 41 41 41 41 40 39 39 39 40 41 40 36 33 33 34 33 32 31 33 34 35 33 31 27 22 19 17 15 12 10 9 9 10 13 14 13 12
48 46 45 43 40 40 40 36 33 33 34 34 32 31 30 31 33 35 35 37 39 40 39 39 39 39 39 39 38 37 36 34 33 35 36 39 42 41 37 35 35 33 32 31 31 32 33 32 29 26 23 21 20 16 13 12 12 13 13 14 14 11 8
47 46 45 43 40 39 40 38 35 34 34 34 30 27 27 29 30 31 31 32 35 37 38 38 37 37 37 37 35 34 31 28 28 31 33 35 38 41 43 41 38 33 29 29 29 29 29 29 26 25 24 24 22 17 14 14 15 14 13 13 12 9 7
47 46 44 43 42 39 37 38 38 35 33 31 26 23 24 26 28 29 28 28 29 31 33 35 35 36 37 36 34 32 29 26 26 29 32 33 33 36 40 44 44 39 33 29 28 27 26 24 23 22 22 22 21 18 17 17 16 11 8 9 9 8 7
46 46 43 41 40 36 34 38 38 32 27 26 24 21 21 23 25 26 26 25 26 26 28 31 33 35 36 35 34 32 29 26 25 28 31 33 34 35 36 38 40 42 40 35 31 29 27 26 24 22 22 20 19 19 21 20 17 12 10 10 9 8 7
45 45 43 40 38 34 34 37 34 27 24 24 23 21 20 20 22 24 25 24 24 25 28 31 33 34 34 34 32 31 29 27 26 28 31 33 35 37 36 33 32 35 38 38 35 34 32 30 27 26 24 20 17 18 20 21 20 17 15 14 12 11 10
44 44 42 39 36 35 35 34 30 25 24 23 22 21 19 18 19 21 24 24 24 26 29 31 31 32 32 31 29 27 28 27 26 28 31 34 36 37 34 31 29 28 30 35 37 35 33 32 30 29 27 23 21 19 18 19 21 19 17 17 16 14 14
44 43 42 39 36 35 36 33 27 25 24 22 21 20 18 16 16 17 20 23 24 27 29 29 30 30 29 28 27 27 27 27 26 27 30 33 35 33 30 29 28 24 24 30 33 32 30 29 29 29 29 28 29 27 24 22 23 22 20 20 19 17 16
44 44 43 40 37 36 36 33 28 25 24 22 21 19 17 15 14 14 17 21 25 27 28 28 28 28 27 25 25 26 27 27 27 27 29 30 31 29 27 27 26 23 21 24 28 29 27 26 27 27 27 28 29 30 29 27 25 23 22 21 20 19 16
45 44 42 40 39 37 35 33 29 26 23 21 20 19 17 15 14 14 15 19 23 25 28 30 30 29 28 26 25 26 27 27 28 29 29 28 28 27 27 27 26 23 20 21 25 27 26 24 25 25 25 24 24 26 27 26 24 23 22 21 20 19 15
44 42 41 40 39 38 36 33 30 27 22 19 18 17 16 15 15 14 13 16 21 23 24 27 28 28 28 27 26 26 26 26 27 29 29 27 26 26 27 28 28 25 22 21 22 24 24 23 23 23 22 21 20 21 23 23 23 23 22 20 20 18 15
43 42 42 41 40 38 37 34 30 27 22 17 15 13 12 12 16 18 16 13 17 21 22 21 22 23 24 25 24 24 24 24 23 25 27 27 27 26 27 28 28 27 25 23 22 22 22 21 20 20 20 19 19 20 21 22 22 22 21 19 18 18 16
43 43 43 42 42 40 37 32 29 25 21 16 13 11 9 10 14 21 24 19 14 16 18 18 18 17 18 21 21 20 22 23 22 22 24 26 27 27 28 29 28 26 26 25 23 21 20 19 17 18 19 19 19 19 18 19 19 19 19 17 16 15 15
44 44 42 41 40 37 32 27 24 21 18 13 9 8 7 9 13 19 25 25 19 14 14 15 15 14 15 18 19 19 19 20 21 22 23 24 26 27 28 28 27 27 27 26 23 20 19 18 17 17 17 19 19 18 17 16 16 17 17 16 15 14 13
40 39 38 37 34 29 24 22 21 19 15 10 8 8 6 6 10 15 20 25 25 19 14 14 15 13 13 16 18 19 19 18 19 21 21 22 25 27 28 28 28 29 29 27 26 25 22 19 18 17 16 18 19 17 16 15 15 15 14 13 12 12 11
30 30 29 31 30 26 22 20 19 17 13 10 11 12 10 7 5 7 11 18 24 23 17 17 18 16 14 15 16 16 17 17 19 20 21 22 25 27 28 28 28 28 29 28 28 26 23 20 21 19 17 17 17 15 14 14 13 13 13 12 12 12 12
21 22 23 25 28 28 22 18 16 16 14 13 14 14 12 11 8 6 6 10 18 22 18 17 19 18 15 14 14 14 13 13 15 17 19 21 23 25 27 28 26 25 25 26 24 20 17 19 22 21 19 19 18 17 16 12 9 10 12 13 13 15 15
21 22 22 23 28 29 21 15 13 14 9 6 6 6 7 9 10 10 9 8 13 19 18 17 19 19 16 14 13 11 9 10 14 18 19 21 22 23 25 26 25 23 23 24 22 19 17 19 20 19 19 19 18 18 16 13 11 12 14 12 12 14 16
22 25 26 25 28 29 22 13 9 10 7 4 4 4 3 3 5 7 9 9 12 17 18 18 19 18 14 11 10 9 9 11 15 17 17 18 20 20 20 21 21 21 20 20 20 19 18 18 18 16 16 16 16 17 16 14 15 17 16 14 13 12 14
23 26 30 30 29 29 26 16 9 8 10 9 7 5 3 3 3 6 8 9 11 14 16 16 16 13 10 9 9 10 12 15 14 13 14 17 18 18 17 16 17 19 19 19 19 19 18 18 18 17 17 16 16 17 18 18 20 21 19 18 16 14 12
31 29 31 31 28 28 29 24 17 13 12 11 9 4 1 1 3 8 13 13 11 11 13 13 14 13 12 12 13 14 16 17 16 15 16 17 17 17 15 14 13 14 15 16 16 16 16 16 16 17 17 17 18 20 21 21 20 21 21 20 19 18 16
37 32 29 27 25 26 27 26 22 19 17 18 17 11 7 9 12 15 17 15 12 11 11 10 11 11 10 10 11 11 12 13 14 14 13 12 11 10 9 10 11 12 12 13 13 13 14 15 15 16 17 19 20 21 22 21 19 20 22 21 19 19 19
Wind_Direction
299 289 286 283 281 281 280 277 275 277 283 285 284 284 278 270 266 264 263 262 260 258 256 254 253 252 253 251 251 251 251 249 248 245 243 242 242 242 242 244 245 248 256 262 263 265 268 271 274 278 283 286 287 287 285 284 280 275 272 268 263 259 253
311 298 291 288 286 284 280 275 275 279 282 282 282 284 280 272 266 263 262 260 259 257 255 253 252 252 251 250 250 250 250 250 249 247 244 242 240 241 242 243 244 248 254 260 263 264 266 269 271 275 281 286 288 290 291 290 287 281 276 272 267 263 256
317 311 303 295 290 286 282 279 279 279 279 279 281 285 285 277 268 263 261 259 258 256 254 252 252 251 250 249 249 249 249 249 248 247 246 244 242 241 242 243 244 246 251 258 263 265 266 267 269 273 279 284 288 291 293 293 292 289 283 278 273 268 262
304 306 305 302 296 289 283 280 279 279 279 278 279 283 288 285 272 263 260 259 257 256 253 251 251 251 249 248 247 248 247 246 246 246 246 245 243 241 241 242 244 246 249 255 261 264 266 266 267 271 276 282 288 290 293 294 294 294 292 288 280 272 268
298 297 296 296 296 292 286 280 278 279 279 278 279 283 289 289 277 265 261 258 256 255 253 251 250 250 249 247 247 246 245 244 244 245 245 244 242 240 241 242 243 246 248 252 258 262 264 264 264 269 275 280 286 289 291 293 294 296 296 293 287 277 272
298 296 293 291 289 288 285 283 281 279 277 277 278 282 285 286 279 268 261 258 256 254 252 250 250 249 248 247 246 245 244 243 242 242 243 243 242 240 240 241 243 245 247 250 254 259 261 260 262 267 272 277 283 286 289 294 296 296 297 298 298 288 278
300 297 294 292 288 284 281 281 280 278 276 275 276 279 281 280 276 269 262 258 255 253 251 250 249 248 247 246 245 244 243 242 241 241 241 241 241 241 241 242 243 244 246 248 251 254 255 257 261 266 270 274 277 281 288 297 300 298 299 303 304 298 287
304 299 295 292 290 286 282 280 277 275 274 273 274 276 276 275 273 269 263 257 254 252 250 249 248 247 246 246 245 243 242 242 240 240 241 241 241 240 240 240 242 244 245 246 248 251 253 257 261 264 267 269 271 278 288 293 290 292 301 306 306 304 297
307 303 299 295 291 288 285 281 278 275 273 272 272 273 273 273 272 269 263 256 252 250 249 248 247 246 246 245 245 243 242 242 241 241 242 242 242 241 240 240 241 242 244 245 246 248 251 255 259 261 263 265 269 279 286 280 275 287 302 307 307 312 309
311 308 305 301 296 293 289 284 280 276 272 269 269 270 271 272 270 267 261 255 250 248 247 246 245 245 245 246 245 243 242 242 242 242 243 245 245 244 243 242 241 241 240 240 242 246 249 253 256 259 261 263 268 275 278 277 278 289 301 306 310 320 315
314 311 308 305 301 298 294 290 286 280 274 269 267 267 268 269 267 263 259 252 248 246 245 244 244 244 244 245 243 242 240 240 240 240 241 244 247 248 248 246 244 241 238 237 240 244 248 251 254 258 259 261 264 267 270 273 276 284 293 308 322 331 322
315 313 311 309 306 301 296 292 289 285 279 274 268 266 266 267 265 261 255 250 246 244 243 242 242 243 243 243 241 240 238 238 237 236 237 240 244 247 248 248 247 244 240 239 240 244 247 250 253 257 257 256 260 264 266 266 269 276 286 307 320 320 315
317 315 313 310 306 301 298 295 292 289 285 279 270 265 264 265 264 259 252 246 243 242 241 240 240 240 241 242 241 240 239 238 238 238 239 239 240 241 241 242 244 244 244 242 242 245 248 250 253 255 254 252 256 259 258 260 264 267 279 300 308 305 300
317 314 313 310 306 301 298 296 295 292 287 281 275 270 265 263 263 259 251 244 241 240 240 239 239 239 240 241 242 242 241 241 241 242 241 238 236 236 237 235 235 237 240 243 243 244 245 248 251 251 249 246 250 253 252 257 262 268 281 290 294 298 301
317 315 314 312 309 304 301 300 299 295 289 283 278 273 266 260 259 258 250 243 240 240 240 240 240 239 240 243 244 244 244 244 244 245 243 239 234 233 234 235 235 234 234 236 240 242 242 243 246 246 243 240 242 247 249 252 257 264 272 278 284 296 310
318 317 315 313 311 307 306 309 307 298 291 286 278 269 265 260 257 255 249 241 239 239 239 239 240 240 241 243 246 247 246 245 245 245 244 240 236 233 231 232 235 236 234 232 235 241 244 245 244 240 239 238 236 238 242 249 256 257 259 271 285 302 326
319 318 316 315 314 311 309 311 309 299 291 287 278 267 264 262 258 254 248 241 238 237 238 239 240 241 243 244 245 248 248 243 240 243 245 243 239 236 233 231 230 232 233 232 233 238 244 248 246 240 236 235 234 235 239 243 248 252 256 268 283 305 334
320 319 318 316 315 313 309 307 305 300 292 287 278 266 264 263 259 254 247 239 235 235 237 240 242 243 244 244 245 248 248 241 235 237 242 243 242 239 237 234 230 228 229 230 230 232 236 241 245 243 239 236 233 234 237 237 237 243 259 269 280 305 326
320 319 319 318 317 315 311 308 306 302 294 288 280 269 267 267 261 252 244 235 230 231 236 239 242 243 244 245 247 248 245 241 236 233 235 239 242 242 240 237 233 230 229 228 226 224 225 230 236 240 243 242 233 226 229 235 239 242 252 263 273 293 303
322 320 320 321 320 316 313 311 309 305 297 291 286 276 270 270 262 249 240 235 230 230 236 240 240 240 241 243 247 247 242 239 236 231 229 232 237 240 242 242 240 235 230 228 227 223 219 222 227 232 237 238 225 212 214 225 237 242 247 258 265 269 274
323 322 322 323 320 315 314 315 313 308 300 292 288 281 272 270 266 249 237 235 235 235 238 239 239 240 241 241 240 238 237 237 235 232 230 231 235 240 243 245 246 242 231 228 230 229 224 222 224 226 227 228 225 220 217 224 236 243 247 254 259 261 264
324 323 322 323 320 314 316 318 316 311 303 294 290 284 271 267 270 256 240 236 237 238 238 239 240 241 242 240 235 231 232 234 234 232 232 233 236 239 241 243 247 245 233 227 230 232 230 227 225 222 220 222 226 229 229 231 238 243 245 250 254 256 258
324 323 323 323 320 316 317 319 317 313 306 295 290 285 271 260 257 253 246 239 236 237 239 240 240 242 242 238 233 230 232 235 235 235 235 235 235 234 232 235 241 242 235 227 226 229 229 226 222 220 219 220 222 223 224 226 230 235 240 246 250 253 257
325 324 322 320 318 317 317 318 318 317 310 298 289 283 276 265 247 238 247 249 242 239 240 240 241 244 245 241 235 235 238 241 239 237 235 232 232 230 226 227 231 234 231 225 222 225 225 220 218 220 223 223 220 217 218 221 226 232 237 243 248 253 258
324 323 320 318 317 316 316 317 317 317 313 305 295 283 274 267 253 238 241 253 250 243 242 243 244 247 248 246 241 239 241 243 240 237 235 233 230 227 224 223 223 224 226 225 221 220 221 218 217 221 221 217 211 209 210 214 221 228 231 235 240 245 248
322 320 319 317 316 315 314 314 315 316 314 309 302 290 270 255 243 228 220 234 249 247 245 244 245 248 247 242 238 236 235 236 236 234 232 230 227 224 222 223 222 219 220 222 220 218 220 220 217 215 212 206 203 205 207 211 217 223 226 228 231 235 238
321 320 319 317 315 313 312 312 314 316 316 309 302 296 273 245 232 221 212 209 226 245 244 237 239 249 244 234 233 235 234 235 237 235 231 229 227 223 220 221 222 219 217 219 220 219 220 218 213 209 206 204 203 203 205 210 214 217 222 225 228 232 237
320 319 318 318 316 313 311 312 316 322 324 316 307 305 274 239 229 223 216 211 212 228 242 236 236 248 243 229 228 231 232 234 234 231 229 227 224 220 217 217 220 221 219 221 223 222 220 218 215 211 207 205 204 202 201 203 205 209 216 221 222 227 234
322 322 323 327 327 321 314 316 322 328 330 322 320 329 314 252 228 224 222 218 214 218 231 231 230 240 238 225 224 230 235 237 235 230 228 224 220 217 215 215 218 220 220 223 225 226 224 219 216 214 206 199 197 198 197 197 198 200 203 207 213 219 227
326 325 330 338 341 335 320 316 325 334 330 310 298 301 305 299 263 225 223 222 216 213 220 227 229 235 232 223 228 237 238 237 234 229 224 218 215 214 213 216 219 220 221 223 224 223 219 213 212 216 208 192 185 189 194 198 203 204 199 198 210 219 224
335 333 337 344 351 349 334 320 330 338 326 301 287 279 274 278 278 263 259 239 213 203 207 218 223 226 229 231 234 234 232 232 230 222 216 213 212 213 214 217 216 208 203 203 202 199 195 195 201 208 204 191 183 186 192 198 210 214 206 206 214 220 222
354 353 353 352 357 359 348 331 343 357 346 308 293 283 267 265 259 248 252 243 206 197 202 211 215 219 227 231 226 220 224 223 208 198 198 198 197 197 199 200 194 184 181 186 188 186 180 178 179 179 179 178 182 190 199 209 219 219 222 232 236 230 224
10 7 7 5 7 10 5 351 355 16 13 336 314 314 298 273 246 228 222 208 192 193 200 207 211 216 218 218 217 222 226 208 187 178 178 179 176 176 178 181 180 178 179 184 189 192 193 191 189 188 186 187 193 198 202 206 206 209 225 249 258 246 229
10 10 11 12 17 25 28 23 14 4 349 334 322 309 286 266 239 211 192 177 180 192 200 207 212 213 209 204 204 200 194 188 182 179 179 177 174 175 176 178 181 184 185 188 193 199 206 211 215 219 220 221 223 222 221 220 214 214 226 244 253 251 242
358 5 10 12 18 28 34 39 46 44 35 47 68 82 185 163 125 151 162 167 178 190 193 195 195 188 179 176 173 165 161 162 163 165 167 166 168 173 179 188 196 201 205 209 210 213 217 220 223 227 229 231 234 237 239 239 234 226 224 228 234 238 243
358 1 5 12 21 26 27 34 47 56 58 67 76 85 101 100 98 115 138 152 160 164 163 167 170 168 166 167 165 161 161 163 167 171 176 182 190 199 209 218 222 224 224 222 218 215 217 220 225 230 234 236 239 243 245 244 238 228 221 217 216 219 226
Height
1400 1397 1395 1392 1389 1387 1385 1383 1382 1381 1380 1380 1379 1378 1378 1377 1378 1377 1375 1375 1375 1375 1376 1375 1375 1375 1375 1376 1377 1377 1378 1378 1379 1381 1382 1383 1384 1385 1385 1386 1387 1384 1383 1384 1386 1387 1388 1388 1388 1388 1387 1386 1385 1384 1383 1382 1381 1380 1379 1379 1378 1378 1379
1396 1394 1391 1388 1385 1382 1380 1378 1377 1375 1374 1373 1372 1372 1371 1371 1372 1370 1369 1369 1369 1369 1371 1370 1370 1370 1371 1372 1372 1372 1373 1374 1375 1376 1376 1378 1379 1380 1381 1382 1382 1382 1380 1380 1381 1383 1384 1385 1385 1385 1384 1383 1382 1380 1379 1378 1378 1377 1376 1375 1375 1374 1375
1392 1390 1387 1384 1381 1378 1376 1373 1371 1370 1368 1367 1366 1365 1365 1365 1365 1364 1363 1363 1363 1364 1365 1365 1364 1364 1366 1368 1368 1367 1368 1369 1370 1372 1372 1373 1374 1375 1376 1378 1379 1379 1378 1377 1377 1379 1381 1382 1382 1382 1381 1380 1379 1377 1376 1375 1374 1374 1373 1372 1372 1371 1371
1386 1384 1382 1380 1377 1373 1371 1368 1366 1364 1363 1361 1360 1359 1358 1358 1358 1358 1357 1357 1357 1358 1359 1359 1359 1359 1361 1363 1362 1362 1363 1365 1366 1367 1367 1368 1369 1371 1372 1374 1375 1375 1375 1375 1374 1375 1377 1378 1379 1379 1378 1378 1376 1375 1373 1372 1372 1371 1370 1369 1369 1368 1367
1378 1376 1374 1373 1371 1369 1366 1363 1361 1358 1356 1355 1354 1353 1351 1351 1351 1351 1350 1350 1350 1351 1352 1353 1353 1354 1356 1357 1357 1357 1358 1360 1361 1362 1363 1364 1365 1367 1368 1370 1371 1371 1372 1372 1371 1371 1373 1375 1375 1375 1375 1375 1374 1372 1371 1370 1370 1369 1368 1367 1366 1365 1365
1369 1367 1365 1363 1362 1361 1359 1357 1355 1352 1350 1349 1348 1346 1344 1344 1344 1343 1343 1343 1343 1344 1345 1346 1347 1348 1350 1351 1351 1352 1353 1355 1356 1358 1359 1360 1361 1362 1364 1366 1367 1368 1369 1369 1368 1368 1370 1371 1372 1372 1372 1372 1371 1369 1368 1368 1367 1367 1366 1365 1364 1363 1362
1360 1358 1355 1353 1352 1351 1350 1349 1347 1345 1343 1342 1341 1338 1337 1337 1337 1336 1336 1336 1336 1337 1339 1340 1341 1342 1344 1345 1346 1347 1349 1350 1352 1353 1354 1356 1357 1359 1360 1361 1362 1364 1365 1365 1365 1365 1366 1367 1368 1369 1369 1369 1369 1367 1366 1366 1365 1364 1363 1363 1362 1361 1360
1352 1349 1346 1344 1342 1340 1340 1339 1338 1337 1336 1335 1333 1331 1330 1330 1330 1329 1329 1329 1329 1331 1332 1333 1335 1336 1338 1339 1340 1342 1344 1345 1347 1349 1350 1352 1354 1355 1356 1357 1358 1360 1361 1361 1362 1362 1363 1364 1364 1365 1366 1366 1366 1365 1365 1365 1363 1361 1361 1361 1360 1359 1358
1345 1341 1337 1334 1332 1330 1330 1329 1328 1328 1328 1327 1325 1324 1323 1323 1323 1322 1322 1322 1322 1324 1325 1327 1328 1330 1332 1334 1336 1337 1339 1340 1342 1344 1345 1347 1349 1350 1351 1353 1354 1355 1356 1357 1358 1358 1359 1360 1360 1361 1363 1363 1363 1363 1363 1363 1361 1360 1359 1359 1358 1357 1357
1338 1334 1331 1327 1323 1321 1321 1319 1319 1320 1320 1320 1319 1317 1316 1315 1314 1314 1315 1315 1316 1317 1319 1321 1322 1324 1327 1329 1330 1332 1334 1336 1338 1339 1341 1343 1344 1346 1347 1348 1350 1351 1352 1353 1353 1354 1356 1356 1356 1358 1360 1360 1361 1361 1361 1360 1360 1359 1358 1357 1356 1356 1355
1331 1327 1324 1321 1317 1314 1313 1311 1311 1312 1312 1312 1312 1311 1309 1308 1307 1307 1307 1308 1309 1311 1313 1315 1317 1319 1321 1323 1325 1327 1329 1331 1333 1335 1337 1339 1340 1341 1342 1343 1345 1346 1348 1349 1349 1350 1352 1353 1353 1355 1357 1358 1359 1359 1359 1358 1358 1357 1357 1356 1355 1355 1354
1325 1321 1318 1315 1312 1309 1307 1305 1305 1305 1304 1303 1303 1303 1302 1301 1300 1299 1300 1301 1303 1305 1307 1310 1312 1314 1316 1318 1320 1322 1324 1326 1329 1331 1333 1335 1336 1337 1337 1338 1340 1342 1343 1345 1346 1346 1348 1349 1350 1352 1354 1356 1356 1357 1357 1356 1356 1356 1355 1355 1355 1354 1353
1320 1316 1313 1310 1307 1304 1301 1299 1299 1298 1297 1296 1295 1295 1295 1294 1293 1292 1293 1294 1297 1300 1302 1305 1307 1309 1311 1313 1315 1317 1319 1322 1324 1326 1329 1331 1333 1333 1333 1334 1336 1337 1339 1341 1342 1343 1344 1345 1347 1349 1351 1354 1355 1355 1355 1354 1355 1354 1354 1354 1353 1353 1352
1315 1311 1309 1306 1302 1298 1295 1293 1293 1292 1291 1290 1289 1288 1289 1288 1287 1286 1286 1288 1291 1294 1297 1300 1302 1304 1306 1308 1310 1312 1314 1317 1319 1321 1323 1326 1328 1329 1330 1331 1332 1334 1335 1336 1337 1338 1340 1341 1343 1346 1349 1351 1353 1353 1353 1353 1353 1353 1353 1352 1352 1351 1351
1310 1306 1303 1300 1297 1293 1290 1288 1287 1286 1285 1283 1282 1282 1282 1281 1280 1279 1280 1283 1286 1289 1292 1295 1297 1299 1302 1304 1305 1307 1310 1312 1315 1317 1318 1320 1322 1324 1325 1327 1328 1330 1332 1333 1333 1334 1336 1338 1340 1343 1346 1348 1350 1350 1351 1351 1352 1352 1351 1351 1350 1350 1350
1306 1302 1297 1294 1292 1288 1284 1282 1282 1281 1280 1278 1276 1276 1276 1275 1275 1274 1275 1278 1281 1284 1287 1290 1293 1295 1297 1299 1301 1303 1306 1308 1310 1312 1313 1314 1317 1319 1321 1322 1324 1326 1328 1330 1331 1331 1333 1335 1338 1340 1342 1344 1346 1348 1349 1350 1350 1349 1349 1349 1349 1349 1349
1301 1298 1294 1290 1287 1284 1280 1277 1277 1276 1274 1272 1271 1271 1270 1270 1270 1270 1271 1274 1277 1280 1283 1286 1288 1291 1293 1295 1297 1299 1302 1305 1307 1307 1308 1310 1312 1314 1316 1318 1320 1323 1325 1327 1329 1330 1331 1333 1335 1337 1339 1341 1343 1345 1346 1347 1347 1347 1348 1348 1348 1348 1348
1297 1293 1290 1286 1283 1280 1276 1274 1273 1271 1269 1267 1266 1266 1266 1266 1266 1266 1268 1270 1273 1276 1279 1282 1285 1287 1289 1291 1293 1296 1299 1301 1303 1304 1305 1306 1308 1309 1311 1312 1316 1319 1322 1324 1327 1329 1331 1332 1333 1335 1336 1338 1340 1342 1344 1344 1344 1346 1347 1347 1347 1347 1347
1293 1289 1286 1282 1279 1276 1274 1271 1268 1266 1264 1263 1262 1262 1263 1263 1263 1263 1265 1267 1270 1273 1276 1278 1280 1283 1285 1287 1290 1293 1295 1297 1299 1301 1301 1302 1304 1305 1305 1307 1311 1314 1317 1320 1323 1325 1328 1330 1331 1333 1334 1335 1337 1340 1341 1342 1342 1344 1345 1345 1346 1347 1347
1290 1286 1282 1278 1275 1273 1271 1268 1264 1262 1261 1260 1259 1259 1260 1261 1261 1261 1262 1264 1267 1270 1272 1274 1276 1279 1281 1284 1286 1289 1291 1294 1295 1297 1298 1299 1300 1300 1301 1304 1307 1310 1313 1316 1318 1321 1324 1327 1329 1331 1332 1333 1335 1336 1338 1340 1341 1342 1343 1344 1345 1346 1346
1287 1283 1279 1275 1272 1270 1268 1265 1261 1259 1258 1257 1257 1256 1257 1258 1258 1259 1260 1262 1265 1267 1268 1270 1272 1275 1278 1281 1284 1286 1288 1290 1292 1293 1295 1296 1296 1296 1299 1303 1305 1307 1310 1312 1314 1317 1321 1323 1325 1327 1329 1331 1332 1334 1336 1337 1338 1340 1341 1342 1343 1344 1345
1284 1280 1276 1272 1269 1267 1264 1261 1258 1256 1255 1254 1254 1253 1254 1255 1256 1257 1258 1259 1261 1263 1264 1267 1269 1272 1275 1278 1281 1283 1285 1287 1289 1290 1292 1292 1293 1295 1299 1301 1302 1304 1307 1309 1311 1314 1317 1319 1322 1323 1325 1327 1329 1331 1333 1335 1336 1337 1339 1340 1341 1343 1344
1281 1277 1272 1268 1266 1263 1261 1258 1256 1254 1252 1252 1251 1251 1251 1252 1254 1255 1256 1257 1258 1260 1262 1264 1266 1269 1272 1275 1277 1280 1282 1284 1286 1288 1289 1290 1292 1294 1297 1299 1300 1302 1304 1306 1308 1311 1313 1315 1318 1320 1321 1323 1325 1328 1330 1332 1333 1335 1337 1338 1339 1341 1342
1278 1274 1270 1266 1263 1260 1257 1255 1253 1251 1250 1249 1248 1248 1248 1249 1251 1253 1254 1255 1256 1258 1260 1262 1264 1267 1269 1272 1274 1277 1278 1280 1282 1284 1286 1288 1290 1293 1295 1297 1298 1299 1301 1303 1306 1308 1310 1312 1315 1316 1318 1320 1323 1325 1328 1330 1332 1333 1335 1336 1338 1339 1340
1275 1272 1268 1264 1260 1256 1254 1252 1250 1248 1246 1246 1245 1245 1245 1246 1248 1249 1251 1253 1254 1256 1258 1260 1263 1265 1267 1269 1271 1273 1275 1277 1278 1280 1282 1285 1288 1290 1293 1294 1296 1298 1299 1301 1303 1305 1308 1310 1312 1314 1316 1319 1321 1324 1326 1328 1329 1331 1332 1334 1336 1337 1338
1273 1269 1266 1262 1257 1254 1251 1249 1247 1245 1244 1243 1242 1242 1242 1243 1244 1245 1248 1250 1252 1254 1256 1258 1261 1263 1265 1266 1268 1270 1272 1274 1275 1276 1279 1282 1285 1288 1290 1292 1293 1295 1297 1299 1301 1303 1306 1308 1310 1312 1314 1317 1319 1321 1323 1325 1327 1328 1330 1332 1333 1335 1336
1271 1266 1263 1259 1254 1251 1249 1247 1245 1243 1241 1240 1240 1240 1240 1241 1242 1243 1245 1247 1249 1251 1254 1256 1259 1261 1262 1264 1266 1268 1270 1271 1273 1274 1276 1279 1281 1284 1287 1289 1291 1293 1295 1297 1299 1302 1304 1306 1308 1311 1313 1315 1317 1319 1321 1323 1325 1327 1328 1330 1331 1333 1334
1268 1264 1260 1256 1252 1248 1246 1245 1243 1241 1240 1239 1238 1238 1238 1239 1240 1241 1243 1245 1248 1250 1252 1255 1257 1259 1260 1262 1264 1266 1268 1269 1270 1272 1274 1276 1279 1281 1284 1287 1289 1291 1293 1296 1298 1300 1302 1305 1307 1309 1311 1312 1315 1317 1319 1321 1323 1325 1326 1328 1329 1331 1332
1268 1263 1260 1256 1251 1248 1245 1243 1242 1240 1239 1238 1238 1237 1238 1238 1239 1240 1242 1244 1247 1250 1251 1253 1255 1257 1259 1260 1262 1264 1266 1267 1268 1269 1271 1274 1276 1279 1281 1284 1287 1289 1291 1294 1296 1298 1301 1303 1305 1307 1309 1311 1313 1315 1318 1319 1321 1323 1325 1326 1328 1329 1330
1267 1263 1259 1256 1251 1248 1245 1242 1240 1239 1238 1238 1238 1238 1238 1238 1239 1240 1241 1243 1246 1249 1251 1252 1254 1256 1257 1259 1261 1262 1263 1264 1266 1267 1269 1271 1274 1277 1279 1282 1284 1287 1289 1292 1295 1297 1299 1301 1303 1305 1307 1309 1311 1314 1316 1318 1320 1322 1323 1325 1326 1328 1329
1266 1262 1259 1255 1250 1246 1243 1241 1239 1238 1237 1237 1238 1238 1238 1239 1240 1240 1241 1242 1244 1247 1250 1251 1253 1255 1257 1258 1260 1261 1262 1263 1263 1265 1267 1270 1272 1275 1278 1280 1283 1285 1288 1290 1293 1295 1297 1299 1301 1303 1306 1308 1310 1313 1315 1317 1319 1321 1322 1323 1325 1326 1328
1265 1260 1257 1253 1249 1245 1242 1240 1239 1238 1237 1237 1237 1237 1238 1239 1240 1241 1242 1243 1244 1246 1249 1251 1253 1255 1256 1258 1259 1260 1261 1262 1263 1264 1266 1269 1271 1274 1276 1279 1282 1285 1287 1289 1292 1294 1296 1298 1300 1302 1305 1307 1310 1312 1314 1316 1318 1319 1320 1322 1323 1324 1326
1263 1260 1256 1253 1249 1245 1242 1241 1240 1239 1238 1238 1238 1237 1238 1239 1240 1241 1242 1243 1244 1246 1249 1251 1252 1254 1256 1257 1258 1259 1260 1261 1263 1265 1267 1270 1272 1274 1277 1279 1282 1284 1286 1288 1291 1293 1296 1298 1300 1302 1304 1306 1309 1311 1313 1315 1317 1318 1319 1320 1322 1323 1324
1262 1260 1257 1254 1250 1247 1244 1243 1243 1241 1239 1238 1238 1238 1238 1239 1240 1241 1242 1244 1245 1247 1249 1251 1252 1254 1256 1257 1258 1259 1260 1262 1264 1266 1268 1270 1272 1275 1277 1279 1282 1284 1286 1288 1290 1292 1295 1297 1299 1301 1303 1305 1307 1309 1311 1313 1315 1317 1318 1319 1320 1322 1323
1264 1262 1260 1257 1253 1249 1247 1245 1244 1243 1241 1239 1239 1239 1239 1240 1241 1241 1243 1245 1247 1249 1250 1251 1253 1254 1256 1257 1259 1260 1261 1262 1265 1267 1269 1271 1273 1275 1277 1279 1281 1283 1285 1287 1289 1291 1293 1295 1297 1299 1301 1303 1305 1307 1309 1310 1312 1314 1316 1318 1319 1320 1321
1268 1264 1261 1259 1255 1252 1250 1248 1247 1245 1244 1242 1242 1242 1242 1243 1244 1244 1246 1247 1249 1250 1251 1252 1254 1255 1257 1258 1259 1261 1262 1264 1266 1268 1269 1271 1273 1275 1277 1279 1280 1282 1284 1285 1287 1289 1291 1294 1296 1297 1299 1301 1303 1304 1306 1308 1310 1312 1314 1316 1317 1319 1320